Weather in Shnyayevo

Russia / Saratov Oblast     52°34′19″N   46°10′22″E
temp.,
°C
wind,
m/s
gust,
m/s
humid.,
%
clouds,
%
prec.,
mm/h
press.,
hPa
HPBL,
m
17 may, mon
mon1701:00+19se465094 0.0 101565
04:00+17sse335553 0.0 101535
07:00+19sse236284 0.0 101774
10:00+25sse474220 0.0 1017349
13:00+28sse682950 0.0 10171554
16:00+29se572941 0.0 10163112
19:00+25se354823 0.0 101574
22:00+20ese224716 0.0 101615
18 may, tue
tue1801:00+18ese334826 0.0 101634
04:00+17ese47455 0.0 101581
07:00+17e411565 0.0 1015206
10:00+23ese69435 0.0 1015394
13:00+27ese68373 0.0 1015724
16:00+29e59311 0.0 10143165
19:00+25ese37513 0.0 1014126
22:00+20e411546 0.0 1014166
19 may, wed
wed1901:00+19e410450 0.0 1014133
04:00+17e412474 0.0 1013169
07:00+18e614542 0.0 1013282
10:00+22e613506 0.0 1013459
13:00+27ese7103852 0.0 10131447
16:00+28e7113728 0.0 10123058
19:00+24e5144853 0.0 1011372
22:00+22e717582 0.0 1012630
20 may, thu
thu2001:00+19ese918668 0.1 1012590
04:00+17ese9186889 0.4 1013693
07:00+16ese7147396 0.0 1014543
10:00+20se7968100 0.0 1015785
13:00+23sse675792 0.0 10151273
16:00+23sse6857100 0.5 10151420
19:00+19ssw367599 1.0 1016193
22:00+16ssw2379100 1.0 101736
21 may, fri
fri2101:00+16wnw2282100 0.0 101860
04:00+16w2275100 0.0 101937
07:00+16wnw22769 0.0 1020155
10:00+20wsw125697 0.0 1020788
13:00+22wsw335192 0.0 10201485
16:00+23sw2348100 0.0 10201821
19:00+22wnw235612 0.0 1020145
22:00+17nne226517 0.0 102122